Date String (YYYY-MM-DD hh:mm:ss) UTC,Instrument flags,Ambient pressure (hPa),Sample flow (lpm),Bypass flow (lpm),Sample temperature (°C),Ambient temperature (°C),ASC tube jacket temperature (°C),LED temperature (°C),Box temperature (°C),Sample RH (%),Span deviation,Mass concentration (μg/m³),Mass concentration (μg/m³),Mass concentration (μg/m³)
DateTimeUTC,F1_M11,P_M11,Q1_M11,Q2_M11,T1_M11,T2_M11,T3_M11,T4_M11,T5_M11,U1_M11,ZSPAN_M11,X2_M11,X0_M11,X1_M11
2021-10-31 22:00:00,,0829.8,4.98,0.00,25.9,25.1,00.0,35.0,27.7,16.4,0000.0,0004.62,0012.17,0004.05
2021-10-31 22:01:00,,0829.9,5.02,0.00,25.9,25.1,00.0,35.0,27.7,16.5,0000.0,0004.63,0012.57,0004.06
2021-10-31 22:02:00,,0829.8,5.00,0.00,25.9,25.1,00.0,35.0,27.7,16.5,0000.0,0004.62,0012.43,0004.05
2021-10-31 22:03:00,,0829.7,5.00,0.00,25.9,25.1,00.0,34.9,27.7,16.4,0000.0,0004.60,0011.74,0004.06
2021-10-31 22:04:00,,0829.7,5.01,0.00,25.9,25.1,00.0,34.9,27.8,16.5,0000.0,0004.57,0011.09,0004.05
2021-10-31 22:05:00,,0829.7,4.99,0.00,25.9,25.2,00.0,35.0,27.8,16.5,0000.0,0004.60,0011.87,0004.05
2021-10-31 22:06:00,,0829.8,5.01,0.00,25.9,25.2,00.0,35.0,27.8,16.5,0000.0,0004.61,0012.02,0004.06
2021-10-31 22:07:00,,0829.9,5.00,0.00,26.0,25.2,00.0,35.0,27.8,16.6,0000.0,0004.59,0011.60,0004.06
2021-10-31 22:08:00,,0830.0,5.01,0.00,26.0,25.2,00.0,35.0,27.8,16.6,0000.0,0004.60,0011.21,0004.06
2021-10-31 22:09:00,,0829.9,4.99,0.00,26.0,25.2,00.0,35.0,27.8,16.6,0000.0,0004.60,0011.39,0004.06
2021-10-31 22:10:00,,0829.8,5.00,0.00,25.9,25.2,00.0,35.0,27.8,16.5,0000.0,0004.60,0011.35,0004.06
2021-10-31 22:11:00,,0829.9,5.01,0.00,26.0,25.2,00.0,35.0,27.8,16.4,0000.0,0004.62,0010.33,0004.07
2021-10-31 22:12:00,,0829.9,5.01,0.00,26.0,25.2,00.0,35.0,27.8,16.5,0000.0,0004.59,0010.17,0004.08
2021-10-31 22:13:00,,0829.9,5.00,0.00,26.0,25.2,00.0,35.0,27.8,16.5,0000.0,0004.61,0010.52,0004.10
2021-10-31 22:14:00,,0829.8,5.00,0.00,26.0,25.2,00.0,35.0,27.8,16.6,0000.0,0004.63,0011.48,0004.09
2021-10-31 22:15:00,,0829.7,4.99,0.00,26.0,25.2,00.0,35.0,27.8,16.6,0000.0,0004.62,0012.56,0004.10
2021-10-31 22:16:00,,0829.6,5.00,0.00,26.0,25.2,00.0,35.0,27.8,16.5,0000.0,0004.60,0012.09,0004.10
2021-10-31 22:17:00,,0829.2,5.00,0.00,26.0,25.1,00.0,35.0,27.8,16.5,0000.0,0004.57,0012.69,0004.10
2021-10-31 22:18:00,,0829.2,4.99,0.00,26.0,25.1,00.0,35.0,27.8,16.5,0000.0,0004.58,0012.46,0004.10
2021-10-31 22:19:00,,0829.4,5.01,0.00,25.9,25.1,00.0,35.0,27.7,16.5,0000.0,0004.61,0012.57,0004.11
2021-10-31 22:20:00,,0829.5,4.99,0.00,25.9,25.0,00.0,35.0,27.7,16.5,0000.0,0004.60,0012.42,0004.11
2021-10-31 22:21:00,,0829.6,5.00,0.00,25.9,25.0,00.0,34.9,27.7,16.6,0000.0,0004.60,0012.38,0004.11
2021-10-31 22:22:00,,0829.6,5.01,0.00,25.9,25.0,00.0,34.9,27.7,16.6,0000.0,0004.60,0012.41,0004.10
2021-10-31 22:23:00,,0829.6,5.00,0.00,25.9,25.0,00.0,34.9,27.7,16.6,0000.0,0004.60,0011.69,0004.09
2021-10-31 22:24:00,,0829.5,4.99,0.00,25.9,25.0,00.0,34.9,27.7,16.6,0000.0,0004.59,0011.61,0004.08
2021-10-31 22:25:00,,0829.5,5.01,0.00,25.9,25.0,00.0,34.9,27.7,16.6,0000.0,0004.60,0010.84,0004.09
2021-10-31 22:26:00,,0829.5,5.01,0.00,25.9,25.0,00.0,34.9,27.7,16.6,0000.0,0004.62,0010.03,0004.10
2021-10-31 22:27:00,,0829.5,5.00,0.00,25.9,25.0,00.0,34.9,27.7,16.6,0000.0,0004.66,0010.05,0004.10
2021-10-31 22:28:00,,0829.5,4.99,0.00,25.9,25.0,00.0,34.9,27.7,16.6,0000.0,0004.66,0009.00,0004.11
2021-10-31 22:29:00,,0829.4,5.00,0.00,25.9,25.0,00.0,34.9,27.7,16.5,0000.0,0004.70,0009.02,0004.13
2021-10-31 22:30:00,,0829.3,5.00,0.00,25.9,25.0,00.0,34.9,27.7,16.6,0000.0,0004.70,0009.58,0004.14
2021-10-31 22:31:00,,0829.2,5.00,0.00,25.9,25.0,00.0,34.9,27.7,16.5,0000.0,0004.69,0009.60,0004.14
2021-10-31 22:32:00,,0829.2,5.00,0.00,25.9,25.0,00.0,34.9,27.7,16.5,0000.0,0004.72,0010.09,0004.16
2021-10-31 22:33:00,,0829.2,5.01,0.00,25.9,25.0,00.0,34.9,27.7,16.5,0000.0,0004.73,0010.51,0004.17
2021-10-31 22:34:00,,0829.2,5.00,0.00,25.8,25.0,00.0,34.9,27.7,16.5,0000.0,0004.78,0010.53,0004.20
2021-10-31 22:35:00,,0829.4,4.99,0.00,25.8,25.0,00.0,34.9,27.6,16.4,0000.0,0004.81,0010.48,0004.22
2021-10-31 22:36:00,,0829.5,5.00,0.00,25.8,25.0,00.0,34.9,27.6,16.5,0000.0,0004.85,0010.40,0004.24
2021-10-31 22:37:00,,0829.5,4.99,0.00,25.8,25.0,00.0,34.9,27.6,16.5,0000.0,0004.87,0010.07,0004.25
2021-10-31 22:38:00,,0829.5,5.01,0.00,25.8,25.0,00.0,34.9,27.6,16.5,0000.0,0004.87,0010.77,0004.25
2021-10-31 22:39:00,,0829.5,5.01,0.00,25.8,25.0,00.0,34.9,27.6,16.5,0000.0,0004.88,0010.93,0004.26
2021-10-31 22:40:00,,0829.6,5.00,0.00,25.8,25.0,00.0,34.9,27.6,16.5,0000.0,0004.88,0010.87,0004.27
2021-10-31 22:41:00,,0829.6,4.99,0.00,25.8,25.0,00.0,34.9,27.6,16.6,0000.0,0004.90,0010.17,0004.28
2021-10-31 22:42:00,,0829.6,4.99,0.00,25.8,25.0,00.0,34.9,27.6,16.6,0000.0,0004.94,0010.16,0004.29
2021-10-31 22:43:00,,0829.6,5.00,0.00,25.8,25.0,00.0,34.9,27.7,16.6,0000.0,0004.93,0009.50,0004.30
2021-10-31 22:44:00,,0829.6,5.00,0.00,25.8,25.0,00.0,34.9,27.7,16.5,0000.0,0004.93,0009.10,0004.30
2021-10-31 22:45:00,,0829.7,5.00,0.00,25.8,25.1,00.0,34.9,27.7,16.6,0000.0,0004.89,0009.02,0004.30
2021-10-31 22:46:00,,0829.5,5.01,0.00,25.8,25.1,00.0,34.9,27.7,16.7,0000.0,0004.93,0009.15,0004.32
2021-10-31 22:47:00,,0829.5,5.00,0.00,25.9,25.1,00.0,34.9,27.7,16.8,0000.0,0004.95,0009.21,0004.35
2021-10-31 22:48:00,,0829.5,5.00,0.00,25.9,25.1,00.0,34.9,27.7,16.9,0000.0,0004.99,0009.24,0004.40
2021-10-31 22:49:00,,0829.4,5.00,0.00,25.9,25.1,00.0,34.9,27.7,16.8,0000.0,0005.04,0008.60,0004.45
2021-10-31 22:50:00,,0829.4,5.01,0.00,25.9,25.1,00.0,34.9,27.7,16.7,0000.0,0005.07,0008.60,0004.47
2021-10-31 22:51:00,,0829.4,4.99,0.00,25.9,25.1,00.0,34.9,27.7,16.7,0000.0,0005.08,0008.78,0004.48
2021-10-31 22:52:00,,0829.2,4.99,0.00,25.9,25.1,00.0,34.9,27.7,16.8,0000.0,0005.07,0008.69,0004.48
2021-10-31 22:53:00,,0829.2,5.01,0.00,25.9,25.1,00.0,34.9,27.7,16.8,0000.0,0005.10,0008.75,0004.50
2021-10-31 22:54:00,,0829.2,5.00,0.00,25.9,25.1,00.0,34.9,27.7,16.7,0000.0,0005.13,0008.85,0004.51
2021-10-31 22:55:00,,0829.2,5.00,0.00,25.9,25.0,00.0,34.9,27.7,16.7,0000.0,0005.16,0009.24,0004.52
2021-10-31 22:56:00,,0829.2,5.00,0.00,25.9,25.0,00.0,34.9,27.7,16.6,0000.0,0005.21,0009.34,0004.53
2021-10-31 22:57:00,,0829.2,4.99,0.00,25.9,25.0,00.0,34.9,27.7,16.6,0000.0,0005.18,0009.29,0004.51
2021-10-31 22:58:00,,0829.2,5.00,0.00,25.9,25.0,00.0,34.9,27.7,16.6,0000.0,0005.16,0009.27,0004.51
2021-10-31 22:59:00,,0829.2,5.00,0.00,25.9,25.0,00.0,34.9,27.7,16.6,0000.0,0005.15,0009.33,0004.51
